EB3EFU-2 Weather Reports


time (UTC)temp
C
wind
direction
speed
KPH
gust
KPH
rain 1hr
cm
rain 24hr
cm
rain mn
cm
humidity
%
barometer
mb
20260510063601 11 36 1.6 4.8 0.00 1.68 0.05 97 1011.2
20260510062701 11 320 1.6 4.8 0.00 1.68 0.05 97 1011.1
20260510061801 11 332 1.6 4.8 0.00 1.68 0.05 97 1011.3
20260510060901 10 277 1.6 4.8 0.00 1.68 0.05 97 1011.4
20260510060001 10 295 1.6 4.8 0.00 1.68 0.05 97 1011.3
20260510055401 10 169 1.6 4.8 0.00 1.68 0.05 97 1011.2
20260510054501 10 153 1.6 6.4 0.00 1.68 0.05 97 1011.3
20260510053601 10 201 1.6 6.4 0.00 1.68 0.05 96 1011.4
20260510052722 10 212 1.6 4.8 0.00 1.68 0.05 96 1011.2
20260510051801 10 103 1.6 3.2 0.00 1.68 0.05 96 1010.8
20260510050901 10 135 1.6 4.8 0.00 1.68 0.05 96 1011.1
20260510050001 10 153 1.6 4.8 0.00 1.68 0.05 96 1011.1
20260510045401 11 118 1.6 4.8 0.00 1.68 0.05 97 1011.1
20260510044501 11 100 1.6 4.8 0.00 1.68 0.05 97 1011.3
20260510043601 10 91 3.2 4.8 0.00 1.68 0.05 96 1011.2
20260510042701 10 69 3.2 6.4 0.00 1.68 0.05 96 1011.2
20260510041801 11 62 3.2 6.4 0.00 1.68 0.05 96 1011.1
20260510040901 11 83 3.2 4.8 0.00 1.68 0.05 96 1011.2
20260510040022 11 92 3.2 4.8 0.00 1.68 0.05 96 1011.2
20260510035401 11 99 3.2 4.8 0.00 1.68 0.05 96 1011.3
20260510034501 11 58 1.6 4.8 0.00 1.68 0.05 96 1011.4
20260510033622 11 46 3.2 4.8 0.00 1.68 0.05 96 1011.1
20260510032701 11 105 1.6 4.8 0.00 1.68 0.05 96 1011.2
20260510031801 11 191 0.0 3.2 0.00 1.68 0.05 96 1011.2
20260510030901 11 154 1.6 4.8 0.00 1.68 0.05 96 1011.3
20260510030001 11 111 1.6 4.8 0.00 1.68 0.05 96 1011.3
20260510025402 11 92 1.6 4.8 0.00 1.68 0.05 96 1011.5
20260510024502 11 180 1.6 4.8 0.00 1.68 0.05 96 1011.6
20260510023601 11 115 1.6 4.8 0.00 1.68 0.05 96 1011.5
20260510022702 12 92 1.6 4.8 0.00 1.68 0.05 96 1011.3
20260510021802 12 113 1.6 4.8 0.00 1.68 0.05 96 1011.4
20260510020902 12 100 1.6 3.2 0.00 1.68 0.05 96 1011.4
20260510020002 12 109 3.2 4.8 0.00 1.68 0.05 96 1011.2
20260510015401 12 97 3.2 4.8 0.00 1.68 0.05 95 1011.3
20260510014501 12 81 3.2 4.8 0.00 1.68 0.05 96 1011.2
20260510013602 12 126 1.6 3.2 0.00 1.68 0.05 96 1011.4
20260510012701 12 120 1.6 4.8 0.00 1.68 0.05 96 1011.6
20260510011802 12 107 1.6 4.8 0.00 1.68 0.05 95 1011.6
20260510010901 12 109 1.6 4.8 0.00 1.68 0.05 95 1011.6
20260510010002 12 103 1.6 4.8 0.00 1.68 0.05 95 1011.8
20260510005402 12 101 1.6 4.8 0.00 1.68 0.05 95 1011.9
20260510004502 13 84 1.6 3.2 0.00 1.68 0.05 95 1012.0
20260510003602 13 89 1.6 3.2 0.00 1.68 0.05 95 1012.2
20260510002702 13 161 0.0 4.8 0.00 1.68 0.05 95 1012.3
20260510001802 13 285 1.6 6.4 0.03 1.68 0.05 95 1012.6
20260510000923 13 98 1.6 6.4 0.03 1.68 0.05 95 1012.6
20260510000002 13 290 1.6 6.4 0.03 1.68 0.05 95 1012.8
20260509235401 13 319 1.6 6.4 0.03 1.68 0.05 95 1013.0
20260509234502 13 293 1.6 4.8 0.00 1.65 0.05 95 1013.2
20260509233602 13 33 1.6 4.8 0.00 1.65 0.05 95 1013.2
20260509232702 13 104 1.6 6.4 0.03 1.65 0.05 95 1013.3
20260509231802 13 113 1.6 4.8 0.03 1.65 0.05 95 1013.3
20260509230902 13 125 1.6 4.8 0.03 1.65 0.05 95 1013.3
20260509230023 13 260 1.6 4.8 0.05 1.65 0.05 95 1013.3
20260509225402 13 135 1.6 4.8 0.05 1.65 0.05 95 1013.5
20260509224502 13 124 1.6 6.4 0.08 1.65 0.05 95 1013.3
20260509223602 13 105 1.6 6.4 0.08 1.65 0.05 95 1013.4
20260509222702 13 119 1.6 6.4 0.08 1.65 0.03 94 1013.2
20260509221802 13 118 3.2 6.4 0.10 1.63 0.03 94 1013.4
20260509220902 13 32 3.2 6.4 0.10 1.63 0.00 94 1013.3
20260509220024 13 141 1.6 4.8 0.10 1.60 0.00 94 1013.3
20260509215402 13 142 1.6 6.4 0.13 1.60 1.60 94 1013.0
20260509214502 13 158 1.6 6.4 0.10 1.57 1.57 94 1013.2
20260509213623 13 115 3.2 4.8 0.10 1.57 1.57 94 1013.2
20260509212702 13 77 1.6 6.4 0.10 1.55 1.55 94 1013.3
20260509211823 13 166 3.2 9.7 0.10 1.55 1.55 94 1013.2
20260509210902 13 68 3.2 8.0 0.10 1.52 1.52 93 1013.3
20260509210002 13 216 3.2 8.0 0.08 1.50 1.50 93 1013.0
20260509205423 13 136 3.2 8.0 0.08 1.50 1.50 93 1013.1
20260509204502 13 165 3.2 8.0 0.08 1.50 1.50 93 1013.1
20260509203602 13 114 4.8 9.7 0.05 1.47 1.47 92 1012.9
20260509202702 13 91 3.2 9.7 0.05 1.45 1.45 92 1012.6
20260509201802 13 276 3.2 11.3 0.03 1.42 1.42 92 1011.9
20260509200923 13 274 4.8 17.7 0.05 1.42 1.42 91 1011.6
20260509200023 13 305 4.8 14.5 0.10 1.42 1.42 91 1011.5
20260509195402 14 338 6.4 14.5 0.15 1.42 1.42 92 1011.5
20260509194502 14 360 4.8 19.3 0.20 1.42 1.42 93 1011.2
20260509193602 14 15 8.0 19.3 0.28 1.42 1.42 92 1010.6
20260509192702 13 16 8.0 32.2 0.38 1.42 1.42 93 1009.6
20260509191802 13 26 11.3 20.9 0.43 1.40 1.40 93 1009.5
20260509190902 13 44 11.3 20.9 0.46 1.37 1.37 93 1010.2
20260509190002 13 47 9.7 16.1 0.51 1.32 1.32 93 1010.7
20260509185402 13 49 8.0 12.9 0.51 1.27 1.27 92 1011.1
20260509184502 13 44 4.8 9.7 0.56 1.22 1.22 92 1011.4
20260509183602 13 40 3.2 6.4 0.56 1.12 1.12 91 1011.9
20260509182702 13 38 4.8 8.0 0.56 1.04 1.04 91 1011.9
20260509181802 13 78 3.2 8.0 0.61 0.97 0.97 90 1012.1
20260509180902 14 144 1.6 6.4 0.66 0.91 0.91 90 1012.5
20260509180002 14 151 3.2 6.4 0.66 0.81 0.81 90 1012.7
20260509175402 15 162 3.2 6.4 0.66 0.76 0.76 89 1012.9
20260509174502 15 150 1.6 4.8 0.61 0.66 0.66 88 1012.6
20260509173602 15 164 1.6 4.8 0.56 0.56 0.56 87 1012.3
20260509172702 15 158 1.6 4.8 0.46 0.46 0.46 86 1012.3
20260509171823 16 99 1.6 4.8 0.36 0.36 0.36 88 1012.3
20260509170902 16 137 1.6 4.8 0.25 0.25 0.25 89 1012.4
20260509170023 16 95 3.2 8.0 0.18 0.18 0.18 88 1012.1
20260509165402 16 87 4.8 9.7 0.10 0.10 0.10 87 1012.0
20260509164502 16 87 4.8 9.7 0.05 0.05 0.05 86 1012.1
20260509163602 17 72 6.4 12.9 0.00 0.00 0.00 85 1011.7
20260509162702 17 73 6.4 12.9 0.00 0.00 0.00 83 1011.8
20260509161802 17 56 8.0 17.7 0.00 0.00 0.00 83 1011.4
20260509160902 17 47 8.0 16.1 0.00 0.00 0.00 82 1011.3
20260509160002 17 53 8.0 14.5 0.00 0.00 0.00 82 1011.0
20260509155402 17 61 4.8 14.5 0.00 0.00 0.00 81 1011.3
20260509154502 17 64 8.0 14.5 0.00 0.00 0.00 81 1011.5
20260509153602 17 79 4.8 9.7 0.00 0.00 0.00 80 1011.7
20260509152723 17 53 6.4 11.3 0.00 0.00 0.00 80 1012.0
20260509151823 17 37 4.8 9.7 0.00 0.00 0.00 80 1011.8
20260509150902 17 42 4.8 9.7 0.00 0.00 0.00 80 1012.4
20260509150002 17 36 4.8 8.0 0.00 0.00 0.00 80 1012.5
20260509145403 17 33 4.8 11.3 0.00 0.00 0.00 80 1012.6
20260509144503 17 45 6.4 12.9 0.00 0.00 0.00 80 1012.6
20260509143602 17 48 9.7 17.7 0.00 0.00 0.00 80 1012.4
20260509142723 17 23 6.4 14.5 0.00 0.00 0.00 79 1012.5
20260509141802 17 34 6.4 17.7 0.00 0.00 0.00 80 1012.4
20260509140923 17 45 11.3 22.5 0.00 0.00 0.00 81 1012.5
20260509140023 17 57 11.3 22.5 0.00 0.00 0.00 81 1012.1
20260509135403 17 66 12.9 20.9 0.00 0.00 0.00 80 1012.2
20260509134502 17 56 11.3 20.9 0.00 0.00 0.00 80 1012.3
20260509133603 17 53 11.3 22.5 0.00 0.00 0.00 79 1012.5
20260509132703 17 68 9.7 20.9 0.00 0.00 0.00 80 1012.6
20260509131803 17 60 9.7 20.9 0.00 0.00 0.00 79 1013.0
20260509130923 17 73 9.7 20.9 0.00 0.00 0.00 80 1013.2
20260509130003 18 65 8.0 17.7 0.00 0.00 0.00 78 1013.0
20260509125403 18 81 8.0 14.5 0.00 0.00 0.00 79 1013.0
20260509124502 18 57 8.0 19.3 0.00 0.00 0.00 77 1013.2
20260509123603 18 59 9.7 19.3 0.00 0.00 0.00 75 1013.4
20260509122724 18 83 6.4 14.5 0.00 0.00 0.00 73 1013.6
20260509121802 18 75 6.4 14.5 0.00 0.00 0.00 75 1013.9
20260509120903 18 54 8.0 16.1 0.00 0.00 0.00 78 1014.0
20260509120003 18 76 6.4 14.5 0.00 0.00 0.00 76 1013.8
20260509115403 18 52 8.0 19.3 0.00 0.00 0.00 78 1013.8
20260509114503 17 49 11.3 22.5 0.00 0.00 0.00 80 1013.6
20260509113603 17 47 12.9 20.9 0.00 0.00 0.00 79 1013.7
20260509112703 18 55 11.3 20.9 0.00 0.00 0.00 79 1013.7
20260509111803 18 63 11.3 24.1 0.00 0.00 0.00 79 1013.7
20260509110903 18 62 9.7 25.7 0.00 0.00 0.00 79 1014.1
20260509110003 17 58 11.3 27.4 0.00 0.00 0.00 78 1014.1
20260509105403 18 60 9.7 22.5 0.00 0.00 0.00 76 1013.8
20260509104503 18 63 9.7 24.1 0.00 0.00 0.00 76 1014.0
20260509103603 18 47 12.9 24.1 0.00 0.00 0.00 78 1014.2
20260509102724 18 43 12.9 24.1 0.00 0.00 0.00 78 1014.4
20260509101803 17 58 9.7 20.9 0.00 0.00 0.00 80 1014.5
20260509100903 17 59 11.3 29.0 0.00 0.00 0.00 80 1014.4
20260509100003 18 63 8.0 20.9 0.00 0.00 0.00 79 1014.1
20260509095403 17 46 6.4 14.5 0.00 0.00 0.00 79 1014.1
20260509094503 17 12 6.4 12.9 0.00 0.00 0.00 79 1014.1
20260509093603 17 25 6.4 14.5 0.00 0.00 0.00 80 1013.9
20260509092724 17 26 6.4 12.9 0.00 0.00 0.00 79 1014.0
20260509091803 17 15 6.4 14.5 0.00 0.00 0.00 80 1013.6
20260509090903 16 356 9.7 16.1 0.00 0.00 0.00 81 1013.6
20260509090024 16 358 9.7 16.1 0.00 0.00 0.00 82 1013.6
20260509085403 16 3 8.0 14.5 0.00 0.00 0.00 80 1013.8
20260509084503 16 353 9.7 16.1 0.00 0.00 0.00 80 1013.8
20260509083624 16 349 8.0 14.5 0.00 0.00 0.00 79 1014.0
20260509082701 16 28 4.8 9.7 0.00 0.00 0.00 78 1014.1
20260509081801 16 6 4.8 9.7 0.00 0.00 0.00 78 1014.2
20260509080901 16 11 4.8 9.7 0.00 0.00 0.00 79 1014.1
20260509080001 16 58 4.8 9.7 0.00 0.00 0.00 80 1014.4
20260509075401 15 29 3.2 9.7 0.00 0.00 0.00 80 1014.2
20260509074501 15 58 1.6 6.4 0.00 0.00 0.00 80 1014.5
20260509073601 15 39 1.6 4.8 0.00 0.00 0.00 82 1014.5
20260509072722 14 8 3.2 6.4 0.00 0.00 0.00 83 1014.5
20260509071801 14 350 3.2 6.4 0.00 0.00 0.00 84 1014.5
20260509070901 14 290 1.6 6.4 0.00 0.00 0.00 84 1014.3
20260509070001 14 324 1.6 6.4 0.00 0.00 0.00 85 1014.6
20260509065401 14 356 1.6 6.4 0.00 0.00 0.00 86 1014.6
20260509064501 14 1 4.8 6.4 0.00 0.00 0.00 87 1014.3